TimeEDT,TemperatureF,Dew PointF,Humidity,Sea Level PressureIn,VisibilityMPH,Wind Direction,Wind SpeedMPH,Gust SpeedMPH,PrecipitationIn,Events,Conditions,WindDirDegrees,DateUTC
12:11 AM,64.4,64.4,100,30.14,1.2,Calm,Calm,-,N/A,,Partly Cloudy,0,2012-10-04 04:11:00
12:29 AM,64.4,64.4,100,30.14,2.0,Calm,Calm,-,N/A,,Clear,0,2012-10-04 04:29:00
12:38 AM,64.4,64.4,100,30.14,1.8,Calm,Calm,-,N/A,,Partly Cloudy,0,2012-10-04 04:38:00
12:54 AM,64.9,64.0,97,30.13,1.5,Calm,Calm,-,N/A,,Mostly Cloudy,0,2012-10-04 04:54:00
1:21 AM,66.2,64.4,94,30.15,2.0,Calm,Calm,-,N/A,,Scattered Clouds,0,2012-10-04 05:21:00
1:49 AM,64.4,64.4,100,30.15,1.2,Calm,Calm,-,N/A,,Clear,0,2012-10-04 05:49:00
1:54 AM,64.9,64.9,100,30.14,1.0,Calm,Calm,-,N/A,,Clear,0,2012-10-04 05:54:00
2:36 AM,64.4,64.4,100,30.14,2.0,Calm,Calm,-,N/A,,Scattered Clouds,0,2012-10-04 06:36:00
2:50 AM,64.4,64.4,100,30.14,1.5,Calm,Calm,-,N/A,,Scattered Clouds,0,2012-10-04 06:50:00
2:54 AM,64.9,64.9,100,30.14,1.5,Calm,Calm,-,N/A,,Mostly Cloudy,0,2012-10-04 06:54:00
3:09 AM,66.2,64.4,94,30.14,2.5,Calm,Calm,-,N/A,,Mostly Cloudy,0,2012-10-04 07:09:00
3:19 AM,64.4,64.4,100,30.13,1.5,Calm,Calm,-,N/A,,Scattered Clouds,0,2012-10-04 07:19:00
3:39 AM,66.2,64.4,94,30.13,2.0,Calm,Calm,-,0.00,,Scattered Clouds,0,2012-10-04 07:39:00
3:54 AM,66.0,64.9,96,30.12,1.8,Calm,Calm,-,0.00,,Mostly Cloudy,0,2012-10-04 07:54:00
4:30 AM,66.2,64.4,94,30.13,2.0,Calm,Calm,-,N/A,,Scattered Clouds,0,2012-10-04 08:30:00
4:54 AM,66.0,64.9,96,30.13,2.0,Calm,Calm,-,N/A,,Mostly Cloudy,0,2012-10-04 08:54:00
5:54 AM,66.0,64.9,96,30.13,2.0,Calm,Calm,-,N/A,,Overcast,0,2012-10-04 09:54:00
6:54 AM,66.0,64.9,96,30.13,2.5,Calm,Calm,-,N/A,,Overcast,0,2012-10-04 10:54:00
7:13 AM,66.2,64.4,94,30.14,1.5,Calm,Calm,-,N/A,,Overcast,0,2012-10-04 11:13:00
7:31 AM,66.2,64.4,94,30.15,2.0,Calm,Calm,-,0.00,Rain,Light Rain,0,2012-10-04 11:31:00
7:54 AM,66.0,64.9,96,30.14,1.5,Calm,Calm,-,0.00,,Overcast,0,2012-10-04 11:54:00
8:32 AM,66.2,66.2,100,30.16,2.0,Calm,Calm,-,N/A,,Mostly Cloudy,0,2012-10-04 12:32:00
8:54 AM,66.9,66.0,97,30.14,2.0,Calm,Calm,-,0.00,Rain,Light Rain,0,2012-10-04 12:54:00
9:54 AM,68.0,66.9,96,30.15,2.5,Calm,Calm,-,0.01,Rain,Light Rain,0,2012-10-04 13:54:00
10:54 AM,69.1,68.0,96,30.14,2.5,Calm,Calm,-,0.00,,Mostly Cloudy,0,2012-10-04 14:54:00
11:22 AM,71.6,68.0,88,30.14,3.0,Calm,Calm,-,N/A,,Scattered Clouds,0,2012-10-04 15:22:00
11:54 AM,73.0,69.1,87,30.12,4.0,Calm,Calm,-,0.00,,Scattered Clouds,0,2012-10-04 15:54:00
12:54 PM,73.9,69.1,85,30.11,7.0,Calm,Calm,-,N/A,,Mostly Cloudy,0,2012-10-04 16:54:00
1:44 PM,75.2,69.8,83,30.09,5.0,South,4.6,-,N/A,,Haze,190,2012-10-04 17:44:00
1:54 PM,75.0,69.1,82,30.09,6.0,SW,4.6,-,N/A,,Haze,220,2012-10-04 17:54:00
2:08 PM,75.2,69.8,83,30.09,6.0,Variable,3.5,-,N/A,,Haze,0,2012-10-04 18:08:00
2:47 PM,75.2,69.8,83,30.08,6.0,Calm,Calm,-,N/A,,Haze,0,2012-10-04 18:47:00
2:54 PM,75.9,70.0,82,30.07,6.0,Calm,Calm,-,N/A,,Haze,0,2012-10-04 18:54:00
3:54 PM,75.0,69.1,82,30.07,5.0,West,4.6,-,N/A,,Haze,280,2012-10-04 19:54:00
4:54 PM,75.0,66.9,76,30.07,7.0,WNW,8.1,-,N/A,,Clear,300,2012-10-04 20:54:00
5:54 PM,73.0,64.0,73,30.07,10.0,NW,5.8,-,N/A,,Clear,320,2012-10-04 21:54:00
6:54 PM,70.0,63.0,78,30.08,10.0,NW,3.5,-,N/A,,Clear,310,2012-10-04 22:54:00
7:54 PM,64.9,63.0,93,30.08,9.0,Calm,Calm,-,N/A,,Clear,0,2012-10-04 23:54:00
8:54 PM,62.1,61.0,96,30.09,6.0,Calm,Calm,-,N/A,,Clear,0,2012-10-05 00:54:00
9:46 PM,60.8,60.8,100,30.10,2.5,Calm,Calm,-,N/A,,Clear,0,2012-10-05 01:46:00
9:54 PM,60.1,60.1,100,30.09,2.5,Calm,Calm,-,N/A,,Clear,0,2012-10-05 01:54:00
10:03 PM,60.8,60.8,100,30.10,0.8,Calm,Calm,-,N/A,,Clear,0,2012-10-05 02:03:00
10:13 PM,60.8,60.8,100,30.10,0.2,Calm,Calm,-,N/A,Fog,Fog,0,2012-10-05 02:13:00
10:20 PM,60.8,60.8,100,30.11,0.5,Calm,Calm,-,N/A,Fog,Fog,0,2012-10-05 02:20:00
10:29 PM,60.8,60.8,100,30.11,0.5,Calm,Calm,-,N/A,Fog,Fog,0,2012-10-05 02:29:00
10:35 PM,60.8,59.0,94,30.11,2.0,Calm,Calm,-,N/A,,Clear,0,2012-10-05 02:35:00
10:54 PM,59.0,57.9,96,30.10,0.8,Calm,Calm,-,N/A,,Clear,0,2012-10-05 02:54:00
11:03 PM,60.8,59.0,94,30.11,2.0,Calm,Calm,-,N/A,,Clear,0,2012-10-05 03:03:00
11:10 PM,59.0,57.2,94,30.11,6.0,Calm,Calm,-,N/A,,Clear,0,2012-10-05 03:10:00
11:37 PM,59.0,59.0,100,30.10,0.8,Calm,Calm,-,N/A,,Clear,0,2012-10-05 03:37:00
11:49 PM,60.8,59.0,94,30.10,2.0,Calm,Calm,-,N/A,,Clear,0,2012-10-05 03:49:00
11:54 PM,57.9,57.9,100,30.09,1.8,Calm,Calm,-,N/A,,Clear,0,2012-10-05 03:54:00